QPF
0.00 0.00 0.00 0.00 0.02 0.12 0.11 0.05 0.01 0.00 0.00 0.00 0.00 0.00 0.01 0.01 0.04 0.08 0.01 0.00 0.00 0.00 0.00 0.00 0.00 0.00 0.00 0.00 0.01 0.01 0.02 0.02 0.01 0.01 0.01 0.00 0.00 0.00 0.00 0.00 0.00 0.00 0.00 0.01 0.01 0.01 0.01 0.01 0.01
0.00 0.00 0.00 0.00 0.06 0.22 0.18 0.08 0.01 0.00 0.00 0.00 0.00 0.01 0.02 0.01 0.00 0.00 0.00 0.00 0.00 0.00 0.00 0.00 0.00 0.00 0.00 0.00 0.00 0.01 0.02 0.02 0.02 0.02 0.01 0.00 0.00 0.00 0.00 0.00 0.00 0.00 0.01 0.01 0.01 0.01 0.01 0.00 0.00
0.00 0.00 0.00 0.00 0.02 0.07 0.08 0.05 0.02 0.00 0.00 0.00 0.00 0.01 0.03 0.00 0.00 0.00 0.00 0.00 0.00 0.00 0.00 0.00 0.00 0.00 0.00 0.00 0.00 0.01 0.01 0.02 0.02 0.02 0.02 0.01 0.01 0.00 0.00 0.01 0.01 0.01 0.01 0.00 0.01 0.00 0.00 0.00 0.00
0.00 0.00 0.00 0.00 0.02 0.03 0.02 0.02 0.01 0.00 0.00 0.00 0.01 0.03 0.04 0.01 0.00 0.00 0.00 0.00 0.00 0.00 0.00 0.00 0.00 0.00 0.00 0.00 0.00 0.01 0.01 0.01 0.01 0.02 0.01 0.01 0.01 0.01 0.00 0.00 0.01 0.01 0.01 0.00 0.01 0.00 0.00 0.00 0.00
0.00 0.00 0.00 0.01 0.02 0.01 0.01 0.01 0.01 0.00 0.01 0.02 0.02 0.04 0.09 0.02 0.00 0.00 0.00 0.00 0.00 0.01 0.00 0.00 0.00 0.00 0.00 0.00 0.01 0.01 0.01 0.01 0.01 0.01 0.01 0.01 0.01 0.01 0.00 0.00 0.01 0.01 0.01 0.01 0.01 0.01 0.00 0.00 0.00
0.00 0.00 0.00 0.00 0.01 0.02 0.01 0.00 0.00 0.01 0.02 0.05 0.04 0.06 0.10 0.03 0.00 0.00 0.00 0.00 0.01 0.01 0.00 0.01 0.00 0.01 0.01 0.01 0.01 0.01 0.01 0.01 0.01 0.01 0.01 0.01 0.00 0.00 0.00 0.01 0.01 0.01 0.01 0.01 0.01 0.01 0.01 0.01 0.00
0.00 0.00 0.00 0.00 0.01 0.01 0.01 0.00 0.00 0.03 0.06 0.07 0.08 0.18 0.20 0.06 0.01 0.00 0.00 0.00 0.00 0.01 0.01 0.01 0.02 0.02 0.02 0.03 0.02 0.02 0.02 0.02 0.01 0.02 0.01 0.01 0.01 0.01 0.01 0.01 0.01 0.02 0.02 0.01 0.00 0.01 0.01 0.01 0.01
0.00 0.00 0.00 0.00 0.00 0.00 0.00 0.00 0.00 0.04 0.12 0.10 0.10 0.14 0.23 0.10 0.01 0.00 0.00 0.00 0.00 0.00 0.01 0.02 0.05 0.07 0.06 0.04 0.02 0.02 0.03 0.03 0.02 0.02 0.02 0.01 0.01 0.01 0.02 0.01 0.01 0.01 0.01 0.02 0.01 0.01 0.01 0.01 0.01
0.00 0.00 0.00 0.00 0.00 0.00 0.00 0.00 0.01 0.01 0.03 0.04 0.05 0.08 0.12 0.05 0.01 0.00 0.01 0.00 0.01 0.01 0.03 0.04 0.06 0.10 0.13 0.10 0.09 0.07 0.05 0.04 0.03 0.04 0.03 0.02 0.03 0.07 0.09 0.05 0.04 0.02 0.02 0.02 0.02 0.03 0.03 0.02 0.02
0.00 0.00 0.00 0.00 0.00 0.00 0.00 0.01 0.03 0.01 0.04 0.06 0.05 0.04 0.06 0.02 0.01 0.01 0.01 0.01 0.01 0.02 0.04 0.04 0.08 0.07 0.08 0.16 0.26 0.16 0.10 0.10 0.07 0.12 0.11 0.10 0.11 0.12 0.12 0.13 0.09 0.05 0.04 0.04 0.05 0.05 0.04 0.03 0.05
0.00 0.00 0.00 0.00 0.00 0.00 0.02 0.01 0.02 0.01 0.12 0.23 0.15 0.08 0.04 0.04 0.02 0.02 0.02 0.02 0.01 0.02 0.03 0.05 0.07 0.09 0.10 0.10 0.14 0.15 0.15 0.18 0.14 0.14 0.16 0.16 0.16 0.15 0.15 0.18 0.16 0.12 0.09 0.08 0.09 0.08 0.06 0.09 0.11
0.00 0.00 0.00 0.00 0.00 0.00 0.01 0.02 0.02 0.04 0.16 0.21 0.22 0.14 0.13 0.10 0.06 0.03 0.04 0.03 0.03 0.03 0.04 0.08 0.09 0.10 0.13 0.14 0.16 0.15 0.14 0.17 0.14 0.14 0.13 0.15 0.17 0.18 0.19 0.19 0.19 0.18 0.17 0.15 0.14 0.14 0.12 0.12 0.12
0.00 0.00 0.00 0.00 0.00 0.00 0.00 0.02 0.04 0.05 0.05 0.07 0.11 0.10 0.14 0.12 0.11 0.11 0.10 0.08 0.07 0.06 0.08 0.09 0.08 0.08 0.08 0.11 0.13 0.12 0.14 0.14 0.15 0.16 0.15 0.18 0.25 0.22 0.20 0.20 0.20 0.18 0.17 0.19 0.19 0.17 0.17 0.17 0.15
0.00 0.00 0.00 0.00 0.00 0.00 0.01 0.03 0.04 0.08 0.07 0.04 0.05 0.07 0.08 0.12 0.15 0.17 0.18 0.13 0.09 0.08 0.12 0.07 0.08 0.08 0.09 0.09 0.10 0.11 0.11 0.14 0.15 0.14 0.15 0.17 0.22 0.22 0.19 0.17 0.18 0.17 0.15 0.16 0.16 0.16 0.17 0.16 0.16
0.00 0.00 0.00 0.01 0.01 0.02 0.03 0.11 0.12 0.08 0.07 0.04 0.05 0.09 0.15 0.16 0.14 0.15 0.10 0.08 0.08 0.11 0.11 0.06 0.06 0.06 0.08 0.08 0.08 0.08 0.08 0.10 0.12 0.11 0.10 0.10 0.12 0.14 0.15 0.15 0.13 0.11 0.11 0.12 0.14 0.15 0.14 0.12 0.11
0.00 0.00 0.01 0.02 0.02 0.03 0.06 0.20 0.12 0.05 0.05 0.08 0.10 0.12 0.17 0.16 0.10 0.07 0.08 0.08 0.10 0.11 0.08 0.06 0.07 0.07 0.07 0.09 0.09 0.06 0.07 0.07 0.06 0.05 0.05 0.06 0.08 0.07 0.07 0.08 0.08 0.08 0.09 0.10 0.11 0.12 0.12 0.13 0.12
0.01 0.01 0.03 0.03 0.04 0.02 0.03 0.08 0.13 0.08 0.08 0.09 0.14 0.12 0.13 0.16 0.12 0.08 0.08 0.08 0.13 0.12 0.09 0.10 0.09 0.07 0.05 0.05 0.04 0.04 0.05 0.04 0.04 0.03 0.03 0.02 0.02 0.03 0.04 0.05 0.05 0.06 0.06 0.06 0.07 0.09 0.09 0.11 0.12
0.00 0.02 0.04 0.05 0.04 0.02 0.04 0.08 0.07 0.05 0.06 0.06 0.11 0.08 0.09 0.11 0.10 0.08 0.06 0.09 0.12 0.10 0.08 0.07 0.07 0.05 0.05 0.05 0.04 0.03 0.04 0.03 0.04 0.03 0.03 0.02 0.02 0.02 0.02 0.02 0.03 0.03 0.04 0.05 0.05 0.05 0.06 0.06 0.07
0.00 0.01 0.04 0.05 0.04 0.03 0.08 0.11 0.05 0.03 0.04 0.06 0.09 0.08 0.09 0.14 0.14 0.09 0.07 0.10 0.11 0.10 0.08 0.07 0.06 0.05 0.05 0.05 0.04 0.04 0.03 0.03 0.03 0.03 0.02 0.01 0.02 0.02 0.02 0.01 0.02 0.02 0.03 0.04 0.04 0.05 0.05 0.05 0.07
0.00 0.03 0.06 0.03 0.02 0.01 0.05 0.06 0.04 0.05 0.06 0.05 0.06 0.07 0.09 0.10 0.16 0.11 0.08 0.07 0.08 0.09 0.07 0.06 0.05 0.04 0.04 0.04 0.03 0.03 0.02 0.02 0.02 0.02 0.02 0.02 0.02 0.02 0.01 0.01 0.01 0.02 0.02 0.02 0.04 0.05 0.06 0.05 0.08
0.01 0.01 0.03 0.02 0.02 0.01 0.04 0.07 0.06 0.09 0.06 0.03 0.03 0.04 0.06 0.07 0.07 0.08 0.08 0.09 0.09 0.08 0.06 0.04 0.03 0.02 0.02 0.02 0.02 0.02 0.02 0.01 0.01 0.01 0.01 0.02 0.01 0.01 0.01 0.01 0.01 0.01 0.01 0.02 0.03 0.03 0.05 0.05 0.05
0.00 0.00 0.00 0.01 0.02 0.03 0.05 0.15 0.11 0.08 0.06 0.02 0.02 0.03 0.04 0.05 0.06 0.06 0.06 0.06 0.05 0.03 0.02 0.02 0.03 0.02 0.01 0.01 0.01 0.01 0.01 0.01 0.01 0.01 0.01 0.01 0.01 0.01 0.01 0.01 0.01 0.01 0.01 0.01 0.01 0.02 0.03 0.04 0.04
0.00 0.00 0.00 0.01 0.05 0.08 0.06 0.10 0.08 0.06 0.07 0.04 0.02 0.02 0.02 0.03 0.03 0.03 0.04 0.03 0.03 0.01 0.01 0.01 0.02 0.03 0.02 0.02 0.01 0.01 0.01 0.01 0.01 0.01 0.01 0.01 0.00 0.00 0.00 0.00 0.01 0.01 0.01 0.01 0.01 0.01 0.02 0.02 0.03
0.00 0.00 0.02 0.06 0.15 0.20 0.08 0.07 0.08 0.03 0.03 0.02 0.02 0.02 0.01 0.02 0.01 0.01 0.03 0.01 0.01 0.01 0.00 0.00 0.02 0.03 0.03 0.02 0.01 0.01 0.01 0.01 0.00 0.00 0.00 0.00 0.00 0.00 0.00 0.00 0.01 0.01 0.01 0.01 0.02 0.02 0.02 0.03 0.03
0.00 0.03 0.12 0.18 0.24 0.16 0.07 0.03 0.03 0.01 0.00 0.01 0.00 0.02 0.03 0.02 0.01 0.00 0.00 0.00 0.01 0.01 0.00 0.00 0.02 0.03 0.02 0.02 0.02 0.01 0.01 0.01 0.01 0.01 0.00 0.00 0.00 0.00 0.00 0.00 0.01 0.01 0.01 0.01 0.02 0.02 0.02 0.02 0.03
0.00 0.01 0.05 0.09 0.10 0.09 0.04 0.03 0.03 0.01 0.00 0.00 0.00 0.00 0.01 0.02 0.01 0.00 0.00 0.00 0.00 0.00 0.00 0.00 0.01 0.02 0.02 0.02 0.01 0.01 0.01 0.01 0.01 0.00 0.00 0.00 0.00 0.00 0.00 0.00 0.01 0.01 0.01 0.01 0.01 0.01 0.02 0.02 0.03
0.00 0.00 0.00 0.01 0.01 0.03 0.03 0.04 0.03 0.01 0.00 0.00 0.00 0.00 0.00 0.01 0.00 0.00 0.00 0.00 0.00 0.01 0.00 0.00 0.01 0.01 0.01 0.01 0.00 0.00 0.00 0.00 0.00 0.00 0.00 0.00 0.00 0.00 0.00 0.00 0.00 0.01 0.01 0.01 0.01 0.01 0.01 0.02 0.02
0.00 0.00 0.00 0.00 0.01 0.04 0.06 0.04 0.03 0.01 0.00 0.00 0.00 0.00 0.00 0.00 0.00 0.00 0.00 0.00 0.00 0.00 0.00 0.00 0.00 0.00 0.00 0.00 0.00 0.00 0.00 0.00 0.00 0.00 0.00 0.00 0.00 0.00 0.00 0.00 0.01 0.01 0.01 0.01 0.01 0.01 0.01 0.02 0.03
0.00 0.00 0.00 0.00 0.00 0.02 0.07 0.06 0.03 0.01 0.00 0.00 0.00 0.00 0.00 0.00 0.00 0.00 0.00 0.00 0.00 0.00 0.00 0.00 0.00 0.00 0.00 0.00 0.00 0.00 0.00 0.00 0.00 0.00 0.00 0.00 0.00 0.01 0.01 0.01 0.01 0.01 0.01 0.01 0.01 0.01 0.01 0.02 0.02
0.01 0.00 0.00 0.00 0.00 0.00 0.03 0.03 0.01 0.01 0.00 0.00 0.00 0.00 0.00 0.00 0.00 0.00 0.00 0.00 0.00 0.00 0.00 0.00 0.00 0.00 0.00 0.00 0.00 0.00 0.00 0.00 0.00 0.00 0.00 0.00 0.00 0.01 0.01 0.01 0.01 0.01 0.01 0.01 0.01 0.01 0.01 0.02 0.02
MSLP
1008.74 1009.57 1010.51 1011.36 1011.92 1012.05 1011.66 1010.78 1009.52 1008.08 1006.70 1005.58 1004.87 1004.63 1004.83 1005.36 1006.08 1006.83 1007.50 1008.03 1008.43 1008.76 1009.08 1009.47 1009.95 1010.52 1011.14 1011.74 1012.27 1012.69 1012.99 1013.22 1013.41 1013.63 1013.91 1014.25 1014.63 1015.01 1015.34 1015.57 1015.70 1015.74 1015.72 1015.70 1015.72 1015.80 1015.93 1016.10 1016.26
1008.95 1009.78 1010.64 1011.33 1011.69 1011.58 1010.98 1009.93 1008.57 1007.10 1005.75 1004.70 1004.07 1003.91 1004.16 1004.72 1005.45 1006.22 1006.92 1007.53 1008.04 1008.52 1009.01 1009.56 1010.18 1010.84 1011.51 1012.11 1012.60 1012.96 1013.21 1013.40 1013.57 1013.79 1014.08 1014.43 1014.82 1015.19 1015.50 1015.70 1015.80 1015.82 1015.81 1015.81 1015.87 1015.99 1016.17 1016.36 1016.53
1009.18 1009.94 1010.64 1011.10 1011.20 1010.85 1010.05 1008.88 1007.50 1006.09 1004.87 1003.97 1003.48 1003.42 1003.73 1004.30 1005.01 1005.74 1006.44 1007.07 1007.66 1008.26 1008.90 1009.61 1010.38 1011.15 1011.88 1012.49 1012.97 1013.29 1013.50 1013.65 1013.79 1014.00 1014.27 1014.62 1014.98 1015.33 1015.60 1015.77 1015.85 1015.87 1015.87 1015.91 1016.02 1016.19 1016.40 1016.62 1016.79
1009.38 1010.00 1010.48 1010.67 1010.49 1009.90 1008.95 1007.74 1006.43 1005.18 1004.17 1003.50 1003.21 1003.29 1003.65 1004.20 1004.84 1005.49 1006.12 1006.72 1007.35 1008.02 1008.79 1009.64 1010.53 1011.41 1012.20 1012.84 1013.31 1013.61 1013.78 1013.89 1014.01 1014.19 1014.44 1014.76 1015.09 1015.40 1015.64 1015.78 1015.85 1015.88 1015.91 1016.00 1016.15 1016.38 1016.63 1016.86 1017.02
1009.49 1009.93 1010.15 1010.07 1009.63 1008.86 1007.82 1006.65 1005.49 1004.50 1003.77 1003.38 1003.31 1003.53 1003.94 1004.45 1004.98 1005.50 1006.00 1006.53 1007.12 1007.83 1008.67 1009.62 1010.61 1011.57 1012.42 1013.08 1013.55 1013.83 1013.97 1014.06 1014.15 1014.31 1014.54 1014.82 1015.13 1015.40 1015.60 1015.73 1015.80 1015.85 1015.92 1016.06 1016.27 1016.54 1016.82 1017.06 1017.21
1009.49 1009.73 1009.70 1009.36 1008.72 1007.83 1006.80 1005.75 1004.82 1004.13 1003.73 1003.63 1003.80 1004.14 1004.56 1005.00 1005.39 1005.74 1006.08 1006.49 1007.01 1007.71 1008.57 1009.56 1010.61 1011.62 1012.49 1013.17 1013.62 1013.89 1014.02 1014.09 1014.17 1014.31 1014.52 1014.79 1015.06 1015.31 1015.50 1015.62 1015.70 1015.78 1015.90 1016.08 1016.34 1016.65 1016.95 1017.19 1017.33
1009.38 1009.43 1009.18 1008.66 1007.88 1006.96 1006.00 1005.14 1004.48 1004.11 1004.04 1004.22 1004.58 1005.01 1005.42 1005.76 1005.99 1006.15 1006.32 1006.58 1007.01 1007.64 1008.48 1009.48 1010.54 1011.55 1012.41 1013.08 1013.52 1013.77 1013.89 1013.96 1014.05 1014.19 1014.40 1014.66 1014.92 1015.16 1015.34 1015.47 1015.57 1015.68 1015.84 1016.07 1016.36 1016.69 1017.01 1017.25 1017.37
1009.19 1009.07 1008.68 1008.03 1007.20 1006.32 1005.50 1004.86 1004.49 1004.42 1004.63 1005.04 1005.53 1006.01 1006.38 1006.59 1006.66 1006.65 1006.65 1006.77 1007.09 1007.65 1008.44 1009.40 1010.42 1011.39 1012.22 1012.85 1013.27 1013.51 1013.63 1013.71 1013.82 1013.99 1014.22 1014.49 1014.76 1015.00 1015.19 1015.33 1015.45 1015.58 1015.77 1016.02 1016.33 1016.68 1016.99 1017.23 1017.35
1008.95 1008.72 1008.24 1007.55 1006.75 1005.97 1005.32 1004.91 1004.80 1004.98 1005.40 1005.95 1006.52 1006.99 1007.28 1007.37 1007.30 1007.14 1007.01 1007.02 1007.25 1007.74 1008.47 1009.36 1010.31 1011.21 1011.98 1012.56 1012.94 1013.17 1013.30 1013.42 1013.56 1013.77 1014.04 1014.34 1014.63 1014.88 1015.08 1015.24 1015.37 1015.51 1015.71 1015.97 1016.28 1016.62 1016.93 1017.16 1017.28
1008.69 1008.41 1007.91 1007.25 1006.55 1005.91 1005.45 1005.25 1005.34 1005.70 1006.24 1006.86 1007.42 1007.83 1008.03 1008.01 1007.82 1007.56 1007.36 1007.30 1007.48 1007.92 1008.58 1009.40 1010.26 1011.08 1011.76 1012.28 1012.62 1012.84 1012.99 1013.15 1013.34 1013.61 1013.92 1014.26 1014.59 1014.86 1015.08 1015.24 1015.37 1015.51 1015.70 1015.95 1016.24 1016.55 1016.84 1017.06 1017.19
1008.46 1008.18 1007.72 1007.15 1006.57 1006.10 1005.82 1005.79 1006.03 1006.48 1007.06 1007.65 1008.15 1008.47 1008.57 1008.46 1008.21 1007.91 1007.68 1007.61 1007.78 1008.19 1008.80 1009.55 1010.32 1011.04 1011.64 1012.08 1012.39 1012.60 1012.77 1012.97 1013.22 1013.54 1013.91 1014.29 1014.65 1014.95 1015.18 1015.34 1015.47 1015.60 1015.76 1015.96 1016.22 1016.49 1016.75 1016.95 1017.08
1008.30 1008.05 1007.67 1007.22 1006.80 1006.49 1006.37 1006.46 1006.77 1007.25 1007.79 1008.30 1008.70 1008.91 1008.92 1008.75 1008.47 1008.18 1007.98 1007.96 1008.15 1008.55 1009.13 1009.81 1010.50 1011.12 1011.63 1012.01 1012.28 1012.48 1012.67 1012.91 1013.21 1013.58 1014.00 1014.42 1014.80 1015.12 1015.36 1015.52 1015.64 1015.74 1015.87 1016.03 1016.23 1016.45 1016.67 1016.84 1016.97
1008.22 1008.03 1007.75 1007.44 1007.17 1007.01 1007.02 1007.19 1007.53 1007.97 1008.43 1008.83 1009.10 1009.20 1009.14 1008.94 1008.67 1008.43 1008.30 1008.34 1008.57 1008.99 1009.54 1010.16 1010.77 1011.31 1011.74 1012.06 1012.29 1012.48 1012.69 1012.95 1013.28 1013.69 1014.13 1014.58 1014.98 1015.31 1015.56 1015.72 1015.83 1015.92 1016.00 1016.12 1016.26 1016.43 1016.59 1016.73 1016.84
1008.25 1008.13 1007.95 1007.77 1007.64 1007.61 1007.71 1007.94 1008.27 1008.64 1009.00 1009.28 1009.43 1009.44 1009.32 1009.11 1008.89 1008.72 1008.66 1008.77 1009.04 1009.47 1009.99 1010.56 1011.10 1011.56 1011.92 1012.19 1012.40 1012.58 1012.79 1013.06 1013.40 1013.80 1014.25 1014.69 1015.10 1015.44 1015.69 1015.86 1015.97 1016.05 1016.12 1016.20 1016.29 1016.40 1016.51 1016.61 1016.69
1008.40 1008.34 1008.25 1008.18 1008.17 1008.25 1008.43 1008.68 1008.98 1009.29 1009.54 1009.71 1009.77 1009.71 1009.56 1009.37 1009.19 1009.08 1009.09 1009.24 1009.54 1009.96 1010.45 1010.96 1011.43 1011.83 1012.14 1012.37 1012.55 1012.72 1012.92 1013.17 1013.49 1013.87 1014.28 1014.70 1015.09 1015.43 1015.69 1015.88 1016.01 1016.10 1016.17 1016.23 1016.30 1016.36 1016.43 1016.49 1016.52
1008.65 1008.63 1008.61 1008.64 1008.74 1008.90 1009.13 1009.40 1009.68 1009.92 1010.10 1010.18 1010.17 1010.07 1009.91 1009.74 1009.60 1009.53 1009.58 1009.75 1010.04 1010.43 1010.86 1011.30 1011.72 1012.06 1012.34 1012.55 1012.72 1012.88 1013.05 1013.27 1013.54 1013.86 1014.21 1014.58 1014.93 1015.25 1015.52 1015.74 1015.90 1016.03 1016.12 1016.19 1016.25 1016.30 1016.34 1016.35 1016.35
1008.94 1008.95 1009.01 1009.12 1009.31 1009.54 1009.82 1010.10 1010.35 1010.55 1010.67 1010.70 1010.64 1010.53 1010.37 1010.22 1010.11 1010.07 1010.12 1010.27 1010.52 1010.84 1011.20 1011.58 1011.94 1012.25 1012.51 1012.71 1012.88 1013.03 1013.17 1013.34 1013.54 1013.78 1014.05 1014.34 1014.64 1014.93 1015.21 1015.45 1015.67 1015.84 1015.99 1016.09 1016.17 1016.22 1016.24 1016.24 1016.21
1009.20 1009.26 1009.39 1009.59 1009.85 1010.15 1010.46 1010.74 1010.98 1011.14 1011.22 1011.22 1011.15 1011.03 1010.89 1010.76 1010.66 1010.62 1010.65 1010.76 1010.94 1011.18 1011.46 1011.78 1012.09 1012.38 1012.64 1012.86 1013.04 1013.19 1013.31 1013.43 1013.55 1013.69 1013.85 1014.05 1014.29 1014.54 1014.82 1015.09 1015.36 1015.59 1015.79 1015.95 1016.06 1016.13 1016.16 1016.14 1016.10
1009.36 1009.49 1009.71 1010.00 1010.34 1010.69 1011.03 1011.32 1011.54 1011.67 1011.71 1011.69 1011.61 1011.50 1011.38 1011.27 1011.18 1011.13 1011.12 1011.17 1011.27 1011.43 1011.64 1011.90 1012.19 1012.48 1012.76 1013.02 1013.23 1013.39 1013.50 1013.56 1013.61 1013.65 1013.71 1013.82 1013.97 1014.18 1014.44 1014.74 1015.04 1015.33 1015.59 1015.80 1015.95 1016.05 1016.09 1016.09 1016.04
1009.37 1009.61 1009.93 1010.33 1010.76 1011.17 1011.53 1011.81 1011.99 1012.07 1012.07 1012.02 1011.93 1011.83 1011.73 1011.63 1011.55 1011.50 1011.46 1011.46 1011.50 1011.60 1011.75 1011.97 1012.25 1012.56 1012.88 1013.18 1013.44 1013.63 1013.74 1013.78 1013.76 1013.72 1013.69 1013.70 1013.78 1013.94 1014.17 1014.47 1014.79 1015.12 1015.42 1015.67 1015.86 1015.98 1016.04 1016.05 1016.02
1009.22 1009.59 1010.06 1010.58 1011.10 1011.56 1011.93 1012.18 1012.30 1012.32 1012.25 1012.15 1012.04 1011.93 1011.84 1011.77 1011.72 1011.67 1011.64 1011.61 1011.62 1011.68 1011.80 1012.01 1012.29 1012.63 1013.01 1013.37 1013.68 1013.92 1014.05 1014.08 1014.02 1013.92 1013.82 1013.75 1013.76 1013.86 1014.06 1014.33 1014.66 1014.99 1015.31 1015.57 1015.77 1015.91 1015.98 1016.00 1015.99
1008.93 1009.48 1010.12 1010.78 1011.39 1011.89 1012.25 1012.44 1012.48 1012.39 1012.23 1012.05 1011.89 1011.77 1011.69 1011.65 1011.64 1011.63 1011.62 1011.61 1011.62 1011.68 1011.80 1012.01 1012.32 1012.70 1013.13 1013.55 1013.92 1014.21 1014.37 1014.42 1014.35 1014.22 1014.07 1013.95 1013.91 1013.95 1014.10 1014.34 1014.63 1014.95 1015.24 1015.49 1015.68 1015.81 1015.88 1015.91 1015.92
1008.62 1009.35 1010.15 1010.95 1011.64 1012.17 1012.50 1012.61 1012.53 1012.31 1012.03 1011.75 1011.52 1011.36 1011.29 1011.29 1011.32 1011.38 1011.43 1011.47 1011.53 1011.62 1011.77 1012.01 1012.34 1012.75 1013.22 1013.69 1014.12 1014.45 1014.66 1014.74 1014.69 1014.56 1014.39 1014.24 1014.16 1014.16 1014.25 1014.44 1014.68 1014.95 1015.20 1015.40 1015.56 1015.66 1015.71 1015.74 1015.75
1008.37 1009.27 1010.22 1011.13 1011.88 1012.42 1012.69 1012.70 1012.49 1012.13 1011.70 1011.30 1010.98 1010.78 1010.71 1010.74 1010.84 1010.98 1011.12 1011.25 1011.38 1011.53 1011.72 1011.99 1012.35 1012.79 1013.28 1013.78 1014.24 1014.61 1014.86 1014.97 1014.95 1014.85 1014.69 1014.53 1014.43 1014.39 1014.44 1014.57 1014.75 1014.95 1015.13 1015.28 1015.37 1015.43 1015.45 1015.46 1015.47
1008.27 1009.29 1010.35 1011.32 1012.11 1012.62 1012.82 1012.72 1012.38 1011.87 1011.30 1010.78 1010.37 1010.12 1010.05 1010.11 1010.29 1010.52 1010.76 1010.99 1011.21 1011.43 1011.68 1011.98 1012.35 1012.79 1013.28 1013.78 1014.25 1014.64 1014.92 1015.07 1015.09 1015.02 1014.89 1014.74 1014.63 1014.58 1014.59 1014.66 1014.77 1014.90 1015.01 1015.09 1015.13 1015.13 1015.11 1015.09 1015.09
1008.35 1009.43 1010.52 1011.51 1012.28 1012.75 1012.87 1012.67 1012.20 1011.56 1010.87 1010.24 1009.76 1009.47 1009.39 1009.50 1009.74 1010.07 1010.42 1010.76 1011.07 1011.37 1011.67 1011.99 1012.36 1012.79 1013.25 1013.73 1014.17 1014.56 1014.84 1015.01 1015.07 1015.03 1014.94 1014.82 1014.71 1014.65 1014.63 1014.66 1014.72 1014.78 1014.83 1014.84 1014.82 1014.77 1014.71 1014.66 1014.64
1008.57 1009.62 1010.67 1011.62 1012.33 1012.73 1012.77 1012.48 1011.92 1011.20 1010.43 1009.74 1009.21 1008.90 1008.83 1008.98 1009.28 1009.69 1010.14 1010.58 1010.98 1011.35 1011.69 1012.03 1012.39 1012.78 1013.20 1013.62 1014.03 1014.38 1014.66 1014.83 1014.91 1014.91 1014.84 1014.75 1014.66 1014.59 1014.56 1014.56 1014.57 1014.59 1014.58 1014.55 1014.48 1014.40 1014.30 1014.22 1014.17
1008.84 1009.77 1010.72 1011.55 1012.17 1012.48 1012.46 1012.12 1011.52 1010.76 1009.97 1009.26 1008.73 1008.44 1008.39 1008.58 1008.95 1009.43 1009.95 1010.47 1010.95 1011.37 1011.75 1012.10 1012.44 1012.79 1013.15 1013.51 1013.86 1014.17 1014.41 1014.58 1014.66 1014.67 1014.64 1014.57 1014.49 1014.43 1014.39 1014.37 1014.35 1014.34 1014.30 1014.24 1014.14 1014.03 1013.91 1013.80 1013.72
1009.02 1009.77 1010.54 1011.23 1011.72 1011.95 1011.88 1011.52 1010.93 1010.21 1009.46 1008.81 1008.32 1008.08 1008.08 1008.31 1008.73 1009.27 1009.85 1010.43 1010.96 1011.43 1011.83 1012.18 1012.50 1012.80 1013.11 1013.41 1013.69 1013.94 1014.15 1014.29 1014.37 1014.39 1014.37 1014.32 1014.25 1014.20 1014.15 1014.12 1014.09 1014.06 1014.00 1013.92 1013.82 1013.69 1013.56 1013.43 1013.32
1009.02 1009.55 1010.12 1010.62 1010.98 1011.12 1011.02 1010.68 1010.16 1009.52 1008.88 1008.33 1007.95 1007.78 1007.85 1008.14 1008.60 1009.18 1009.80 1010.41 1010.98 1011.46 1011.88 1012.23 1012.53 1012.80 1013.06 1013.31 1013.54 1013.74 1013.91 1014.03 1014.09 1014.11 1014.09 1014.05 1013.99 1013.94 1013.89 1013.85 1013.81 1013.76 1013.70 1013.62 1013.51 1013.38 1013.24 1013.09 1012.96
Thickness
5847 5850 5850 5844 5825 5811 5803 5826 5856 5857 5864 5878 5880 5870 5852 5841 5830 5813 5847 5858 5848 5837 5826 5819 5814 5809 5805 5801 5797 5794 5790 5787 5784 5781 5779 5776 5774 5772 5770 5768 5766 5765 5763 5762 5760 5759 5758 5757 5756
5852 5855 5850 5837 5815 5795 5797 5823 5840 5857 5871 5881 5878 5868 5849 5842 5851 5847 5851 5853 5846 5835 5825 5818 5811 5806 5802 5798 5794 5791 5788 5784 5781 5779 5776 5774 5772 5770 5768 5766 5765 5763 5762 5760 5759 5758 5756 5755 5754
5850 5856 5840 5833 5822 5810 5811 5835 5844 5864 5879 5877 5867 5863 5848 5840 5850 5850 5852 5853 5844 5833 5824 5814 5808 5803 5799 5795 5791 5788 5785 5782 5779 5776 5774 5772 5769 5768 5766 5764 5763 5761 5760 5759 5757 5756 5755 5753 5752
5847 5847 5839 5829 5823 5839 5842 5848 5854 5861 5870 5874 5862 5842 5842 5852 5855 5853 5855 5851 5841 5831 5821 5811 5805 5800 5795 5792 5788 5785 5782 5779 5776 5774 5772 5769 5767 5765 5764 5762 5761 5759 5758 5757 5756 5754 5753 5752 5751
5847 5836 5824 5822 5832 5850 5857 5857 5856 5856 5857 5859 5853 5827 5823 5844 5856 5854 5852 5848 5839 5829 5818 5808 5802 5796 5792 5788 5785 5782 5779 5776 5773 5771 5769 5767 5765 5763 5761 5760 5758 5757 5756 5755 5754 5752 5751 5750 5749
5833 5832 5815 5818 5836 5850 5859 5861 5856 5851 5850 5847 5837 5819 5812 5838 5844 5847 5849 5844 5839 5828 5816 5804 5798 5793 5789 5785 5782 5779 5775 5773 5771 5768 5766 5765 5763 5761 5759 5758 5756 5755 5754 5753 5752 5750 5749 5748 5747
5822 5820 5816 5827 5835 5844 5855 5859 5851 5845 5835 5839 5834 5807 5801 5822 5838 5845 5844 5841 5835 5825 5812 5803 5795 5789 5785 5781 5778 5775 5772 5769 5767 5766 5764 5762 5760 5759 5757 5756 5754 5753 5752 5750 5749 5748 5747 5746 5746
5834 5819 5816 5830 5834 5839 5855 5854 5851 5844 5833 5841 5838 5811 5794 5816 5835 5839 5838 5833 5827 5820 5811 5803 5795 5788 5783 5778 5774 5770 5768 5766 5764 5762 5760 5759 5758 5756 5755 5754 5752 5751 5750 5748 5747 5746 5745 5744 5744
5836 5808 5807 5825 5832 5837 5849 5842 5845 5849 5836 5832 5830 5822 5815 5827 5832 5829 5825 5820 5815 5810 5806 5801 5793 5787 5783 5778 5772 5768 5765 5763 5761 5759 5758 5757 5756 5755 5753 5752 5750 5749 5748 5747 5745 5744 5744 5743 5742
5825 5804 5815 5834 5839 5835 5837 5835 5837 5833 5823 5820 5817 5815 5820 5821 5821 5815 5812 5806 5803 5799 5798 5797 5791 5785 5782 5778 5770 5767 5764 5761 5759 5758 5756 5754 5754 5753 5752 5750 5748 5746 5745 5745 5744 5743 5742 5741 5742
5824 5813 5824 5833 5839 5835 5830 5828 5830 5819 5803 5800 5801 5805 5811 5813 5811 5808 5805 5801 5797 5795 5793 5791 5787 5782 5779 5775 5768 5766 5763 5759 5757 5755 5753 5751 5750 5750 5749 5746 5745 5743 5742 5741 5742 5741 5740 5741 5742
5820 5822 5827 5829 5834 5829 5824 5820 5816 5809 5801 5803 5804 5805 5806 5803 5800 5800 5795 5793 5791 5789 5787 5785 5782 5776 5773 5770 5765 5762 5760 5757 5755 5752 5749 5747 5745 5744 5744 5742 5741 5740 5739 5738 5739 5738 5738 5739 5739
5818 5821 5828 5830 5829 5827 5820 5809 5804 5797 5802 5806 5804 5801 5797 5791 5793 5795 5793 5789 5784 5781 5779 5777 5775 5770 5767 5764 5761 5758 5754 5753 5751 5747 5744 5741 5739 5738 5738 5736 5736 5735 5735 5734 5734 5734 5735 5735 5736
5820 5822 5823 5823 5823 5820 5808 5799 5791 5788 5793 5794 5793 5789 5788 5786 5784 5783 5782 5780 5776 5775 5773 5771 5768 5766 5762 5759 5756 5753 5750 5747 5745 5742 5739 5737 5736 5734 5734 5734 5732 5731 5731 5730 5730 5731 5732 5732 5733
5822 5809 5807 5809 5808 5805 5803 5778 5777 5785 5785 5784 5782 5781 5780 5778 5776 5774 5774 5774 5772 5770 5768 5765 5763 5761 5757 5754 5751 5749 5747 5743 5740 5738 5736 5734 5733 5732 5731 5731 5729 5728 5728 5727 5727 5727 5728 5728 5729
5809 5796 5783 5795 5799 5796 5788 5757 5769 5783 5776 5775 5775 5773 5770 5769 5770 5772 5771 5769 5767 5763 5761 5760 5760 5754 5750 5748 5746 5744 5742 5740 5737 5735 5733 5731 5729 5728 5726 5727 5726 5724 5724 5724 5723 5723 5722 5723 5724
5790 5777 5774 5781 5796 5793 5783 5761 5769 5778 5774 5768 5766 5765 5763 5761 5763 5765 5766 5764 5761 5757 5755 5753 5752 5748 5746 5744 5741 5739 5737 5735 5734 5733 5730 5728 5726 5723 5722 5721 5721 5720 5720 5720 5719 5718 5717 5716 5717
5781 5785 5781 5775 5792 5788 5777 5765 5770 5776 5774 5769 5763 5761 5759 5755 5756 5758 5759 5758 5756 5753 5751 5748 5746 5743 5742 5740 5738 5736 5734 5732 5731 5729 5725 5723 5721 5719 5717 5717 5716 5715 5714 5713 5713 5712 5711 5711 5711
5802 5790 5778 5778 5791 5784 5775 5768 5770 5774 5770 5766 5760 5757 5754 5753 5754 5755 5753 5752 5750 5748 5746 5744 5740 5738 5737 5735 5732 5729 5727 5727 5727 5725 5722 5719 5717 5715 5713 5711 5710 5710 5708 5707 5706 5705 5704 5704 5707
5800 5785 5777 5780 5791 5785 5774 5767 5771 5769 5765 5764 5760 5756 5753 5749 5747 5748 5748 5747 5746 5743 5742 5740 5738 5735 5734 5732 5730 5728 5726 5725 5725 5723 5719 5716 5713 5710 5709 5705 5704 5703 5702 5701 5700 5699 5697 5697 5700
5796 5788 5782 5780 5789 5789 5771 5754 5757 5763 5764 5765 5764 5761 5756 5751 5746 5746 5745 5744 5743 5742 5740 5740 5736 5733 5731 5730 5728 5726 5723 5721 5719 5716 5714 5712 5709 5706 5703 5700 5698 5697 5695 5693 5693 5692 5691 5688 5691
5789 5800 5794 5786 5774 5762 5763 5734 5745 5755 5755 5758 5759 5759 5756 5755 5751 5748 5746 5744 5744 5743 5743 5739 5734 5731 5729 5727 5723 5719 5715 5712 5711 5710 5709 5707 5705 5702 5699 5696 5693 5690 5688 5687 5686 5687 5685 5683 5681
5799 5804 5792 5777 5759 5748 5749 5740 5740 5752 5748 5754 5759 5760 5760 5757 5753 5749 5747 5745 5745 5745 5741 5737 5732 5728 5726 5723 5720 5715 5711 5709 5708 5706 5704 5702 5700 5699 5696 5693 5689 5686 5683 5681 5679 5678 5678 5677 5675
5812 5798 5780 5760 5733 5716 5735 5737 5733 5751 5756 5759 5762 5763 5762 5759 5756 5752 5750 5748 5745 5744 5742 5737 5730 5725 5722 5719 5716 5711 5706 5703 5701 5699 5697 5696 5695 5694 5693 5690 5685 5681 5677 5675 5673 5672 5671 5670 5669
5802 5776 5744 5720 5706 5715 5748 5745 5746 5765 5773 5771 5766 5765 5764 5762 5758 5754 5750 5747 5744 5742 5740 5735 5728 5722 5719 5715 5711 5708 5704 5701 5698 5695 5693 5691 5689 5688 5685 5682 5678 5675 5672 5669 5668 5666 5664 5663 5662
5796 5784 5752 5731 5727 5735 5751 5743 5756 5779 5783 5782 5777 5772 5767 5763 5761 5757 5754 5750 5746 5743 5738 5732 5725 5720 5716 5713 5709 5706 5702 5699 5696 5692 5689 5686 5684 5682 5679 5676 5673 5670 5667 5665 5663 5660 5659 5659 5657
5793 5790 5797 5774 5759 5744 5748 5754 5765 5780 5779 5779 5775 5771 5767 5765 5762 5759 5757 5752 5747 5742 5737 5732 5725 5719 5714 5711 5707 5704 5700 5696 5692 5688 5685 5683 5679 5677 5674 5670 5667 5664 5662 5659 5657 5654 5653 5652 5651
5809 5803 5792 5774 5749 5729 5735 5743 5749 5763 5769 5774 5773 5771 5770 5768 5765 5761 5757 5752 5747 5742 5737 5732 5725 5718 5714 5710 5705 5704 5699 5695 5691 5686 5682 5678 5675 5672 5669 5665 5662 5659 5656 5654 5651 5648 5647 5645 5644
5791 5792 5787 5782 5774 5739 5714 5733 5771 5774 5776 5776 5777 5777 5774 5770 5767 5763 5758 5752 5747 5742 5736 5729 5723 5717 5713 5708 5704 5700 5697 5693 5689 5685 5681 5677 5673 5669 5664 5661 5658 5654 5651 5648 5645 5642 5640 5638 5637
5794 5789 5787 5766 5762 5766 5746 5742 5788 5786 5787 5785 5784 5782 5779 5774 5770 5765 5758 5751 5745 5740 5734 5728 5723 5718 5713 5709 5704 5700 5695 5691 5686 5682 5678 5674 5669 5665 5662 5658 5653 5650 5647 5643 5639 5635 5633 5630 5628